Date,TemperatureHighF,TemperatureAvgF,TemperatureLowF,DewpointHighF,DewpointAvgF,DewpointLowF,HumidityHigh,HumidityAvg,HumidityLow,PressureMaxIn,PressureMinIn,WindSpeedMaxMPH,WindSpeedAvgMPH,GustSpeedMaxMPH,PrecipitationSumIn
2014-1-1,57,38,25,42,33,22,98,85,56,30.32,29.82,21,10,0,3.46
2014-1-2,44,30,18,31,24,17,98,81,59,30.49,30.32,14,4,0,0.00
2014-1-3,60,42,23,37,29,22,98,67,37,30.32,29.77,23,12,0,1.27
2014-1-4,56,43,30,41,33,26,90,69,56,29.92,29.65,24,11,0,1.41
2014-1-5,32,24,15,26,16,6,97,71,42,30.57,29.92,23,14,0,3.91
2014-1-6,31,20,10,14,10,4,92,65,43,30.68,30.42,10,4,0,0.00
2014-1-7,50,34,20,29,21,13,78,61,43,30.41,30.05,16,7,0,0.09
2014-1-8,55,40,30,45,35,23,98,82,54,30.15,29.95,12,6,0,0.00
2014-1-9,40,38,35,40,37,34,98,98,98,30.15,29.90,10,4,0,0.00
2014-1-10,61,47,38,57,40,30,98,79,37,29.87,29.63,17,5,0,0.00
2014-1-11,67,48,27,39,29,24,98,56,21,30.08,29.82,11,3,0,0.00
2014-1-12,81,64,37,81,42,20,99,52,15,29.88,29.53,22,11,0,0.42
2014-1-13,63,48,32,63,32,14,99,60,19,30.07,29.80,14,5,0,0.00
2014-1-14,58,43,27,44,26,13,83,53,21,30.36,29.91,22,7,0,2.53
2014-1-15,62,45,25,35,30,24,98,61,30,30.36,29.94,20,5,0,0.00
2014-1-16,64,48,29,63,33,14,99,62,18,30.21,29.92,24,7,0,2.24
2014-1-17,56,45,30,25,21,13,58,39,24,30.34,30.06,13,5,0,0.00
2014-1-18,69,47,28,69,32,-5,99,62,5,30.19,30.00,22,5,0,0.37
2014-1-19,74,53,29,74,35,12,99,57,10,30.22,29.88,13,6,0,0.00
2014-1-20,71,49,30,71,30,-4,99,55,5,30.32,29.78,26,7,0,11.28
2014-1-21,50,38,27,28,24,18,83,58,40,30.46,30.04,11,5,0,0.00
2014-1-22,53,39,22,36,29,21,98,70,48,30.23,30.01,19,8,0,0.24
2014-1-23,38,23,13,28,3,-7,74,43,24,30.76,30.22,23,12,0,7.63
2014-1-24,51,29,8,22,11,-3,85,51,27,30.75,30.10,17,4,0,0.00
2014-1-25,72,50,28,41,31,17,74,52,31,30.12,29.89,10,2,0,0.00
2014-1-26,70,50,36,42,37,31,98,65,24,29.89,29.62,22,4,0,0.03
2014-1-27,44,26,17,37,-2,-36,99,32,5,30.39,29.92,34,12,0,0.00
2014-1-28,36,24,15,18,11,-2,87,60,42,30.50,30.33,14,5,0,0.00
2014-1-29,50,31,13,19,13,10,98,55,21,30.33,29.90,17,6,0,0.02
2014-1-30,63,46,32,34,25,18,65,46,26,29.89,29.63,14,7,0,0.00
2014-1-31,45,37,28,41,36,27,98,96,68,29.84,29.62,18,7,0,0.00